Time,TemperatureF,DewpointF,PressureIn,WindDirection,WindDirectionDegrees,WindSpeedMPH,WindSpeedGustMPH,Humidity,HourlyPrecipIn,Conditions,Clouds,dailyrainin,SoftwareType,DateUTC
2014-01-27 00:01:00,41.3,31.2,29.84,WSW,240,4.0,7.0,67,0.00,,---,0.00,VWS V14.00,2014-01-27 05:01:00,
2014-01-27 00:06:00,41.1,31.4,29.84,SW,226,1.0,11.0,68,0.00,,---,0.00,VWS V14.00,2014-01-27 05:06:00,
2014-01-27 00:11:00,41.0,31.3,29.84,SW,221,6.0,8.0,68,0.00,,---,0.00,VWS V14.00,2014-01-27 05:11:00,
2014-01-27 00:16:00,41.0,31.6,29.84,SSW,212,6.0,9.0,69,0.00,,---,0.00,VWS V14.00,2014-01-27 05:16:00,
2014-01-27 00:21:00,41.1,31.7,29.84,SSW,209,2.0,10.0,69,0.00,,---,0.00,VWS V14.00,2014-01-27 05:21:00,
2014-01-27 00:26:00,41.0,31.6,29.84,South,190,4.0,6.0,69,0.00,,---,0.00,VWS V14.00,2014-01-27 05:26:00,
2014-01-27 00:31:00,41.0,31.6,29.84,SW,227,1.0,10.0,69,0.00,,---,0.00,VWS V14.00,2014-01-27 05:31:00,
2014-01-27 00:36:00,40.9,31.5,29.83,South,190,4.0,9.0,69,0.00,,---,0.00,VWS V14.00,2014-01-27 05:36:00,
2014-01-27 00:41:00,40.7,31.7,29.83,SSW,194,8.0,10.0,70,0.00,,---,0.00,VWS V14.00,2014-01-27 05:41:00,
2014-01-27 00:46:00,40.7,31.7,29.83,SSW,204,4.0,9.0,70,0.00,,---,0.00,VWS V14.00,2014-01-27 05:46:00,
2014-01-27 00:51:00,40.6,31.6,29.83,SSW,196,2.0,9.0,70,0.00,,---,0.00,VWS V14.00,2014-01-27 05:51:00,
2014-01-27 00:56:00,40.7,31.7,29.83,SSW,196,2.0,7.0,70,0.00,,---,0.00,VWS V14.00,2014-01-27 05:56:00,
2014-01-27 01:01:00,40.7,32.0,29.82,South,188,4.0,8.0,71,0.00,,---,0.00,VWS V14.00,2014-01-27 06:01:00,
2014-01-27 01:06:00,40.7,32.0,29.83,SW,235,7.0,10.0,71,0.00,,---,0.00,VWS V14.00,2014-01-27 06:06:00,
2014-01-27 01:11:00,40.7,32.0,29.83,SSW,209,4.0,9.0,71,0.00,,---,0.00,VWS V14.00,2014-01-27 06:11:00,
2014-01-27 01:16:00,40.8,32.1,29.82,SW,223,7.0,13.0,71,0.00,,---,0.00,VWS V14.00,2014-01-27 06:16:00,
2014-01-27 01:21:00,40.8,32.1,29.82,SSW,205,3.0,9.0,71,0.00,,---,0.00,VWS V14.00,2014-01-27 06:21:00,
2014-01-27 01:26:00,40.7,32.0,29.82,SSW,196,5.0,8.0,71,0.00,,---,0.00,VWS V14.00,2014-01-27 06:26:00,
2014-01-27 01:31:00,40.8,32.1,29.82,SSW,192,3.0,11.0,71,0.00,,---,0.00,VWS V14.00,2014-01-27 06:31:00,
2014-01-27 01:36:00,40.8,32.1,29.81,SW,215,5.0,10.0,71,0.00,,---,0.00,VWS V14.00,2014-01-27 06:36:00,
2014-01-27 01:41:00,40.9,32.2,29.81,SSW,211,6.0,9.0,71,0.00,,---,0.00,VWS V14.00,2014-01-27 06:41:00,
2014-01-27 01:46:00,40.8,32.1,29.81,SSW,192,2.0,7.0,71,0.00,,---,0.00,VWS V14.00,2014-01-27 06:46:00,
2014-01-27 01:51:00,40.9,32.2,29.81,South,187,6.0,7.0,71,0.00,,---,0.00,VWS V14.00,2014-01-27 06:51:00,
2014-01-27 01:56:00,40.9,32.2,29.81,SSW,195,4.0,10.0,71,0.00,,---,0.00,VWS V14.00,2014-01-27 06:56:00,
2014-01-27 02:01:00,41.1,32.4,29.81,South,186,2.0,9.0,71,0.00,,---,0.00,VWS V14.00,2014-01-27 07:01:00,
2014-01-27 02:06:00,41.2,32.2,29.81,West,262,1.0,10.0,70,0.00,,---,0.00,VWS V14.00,2014-01-27 07:06:00,
2014-01-27 02:11:00,41.3,32.3,29.81,SW,222,6.0,10.0,70,0.00,,---,0.00,VWS V14.00,2014-01-27 07:11:00,
2014-01-27 02:16:00,41.4,32.4,29.82,SSW,211,3.0,9.0,70,0.00,,---,0.00,VWS V14.00,2014-01-27 07:16:00,
2014-01-27 02:21:00,41.4,32.4,29.81,SW,234,3.0,10.0,70,0.00,,---,0.00,VWS V14.00,2014-01-27 07:21:00,
2014-01-27 02:26:00,41.5,32.5,29.81,SSW,205,6.0,9.0,70,0.00,,---,0.00,VWS V14.00,2014-01-27 07:26:00,
2014-01-27 02:31:00,41.5,32.5,29.81,SSW,192,4.0,10.0,70,0.00,,---,0.00,VWS V14.00,2014-01-27 07:31:00,
2014-01-27 02:36:00,41.5,32.5,29.82,South,180,3.0,7.0,70,0.00,,---,0.00,VWS V14.00,2014-01-27 07:36:00,
2014-01-27 02:41:00,41.4,32.4,29.81,SSW,194,3.0,9.0,70,0.00,,---,0.00,VWS V14.00,2014-01-27 07:41:00,
2014-01-27 02:46:00,41.5,32.5,29.81,SW,221,2.0,9.0,70,0.00,,---,0.00,VWS V14.00,2014-01-27 07:46:00,
2014-01-27 02:51:00,41.5,32.5,29.81,South,189,7.0,7.0,70,0.00,,---,0.00,VWS V14.00,2014-01-27 07:51:00,
2014-01-27 02:56:00,41.6,32.6,29.81,SW,221,3.0,8.0,70,0.00,,---,0.00,VWS V14.00,2014-01-27 07:56:00,
2014-01-27 03:01:00,41.7,32.7,29.81,SSW,203,6.0,12.0,70,0.00,,---,0.00,VWS V14.00,2014-01-27 08:01:00,
2014-01-27 03:06:00,41.7,32.3,29.82,SW,228,4.0,10.0,69,0.00,,---,0.00,VWS V14.00,2014-01-27 08:06:00,
2014-01-27 03:11:00,41.8,32.4,29.82,SW,231,2.0,11.0,69,0.00,,---,0.00,VWS V14.00,2014-01-27 08:11:00,
2014-01-27 03:16:00,41.8,32.4,29.81,SSW,201,3.0,11.0,69,0.00,,---,0.00,VWS V14.00,2014-01-27 08:16:00,
2014-01-27 03:21:00,41.9,32.5,29.81,SW,221,5.0,10.0,69,0.00,,---,0.00,VWS V14.00,2014-01-27 08:21:00,
2014-01-27 03:26:00,41.9,32.5,29.82,SSW,192,6.0,10.0,69,0.00,,---,0.00,VWS V14.00,2014-01-27 08:26:00,
2014-01-27 03:31:00,41.9,32.5,29.82,South,184,2.0,7.0,69,0.00,,---,0.00,VWS V14.00,2014-01-27 08:31:00,
2014-01-27 03:36:00,41.9,32.5,29.82,West,262,4.0,10.0,69,0.00,,---,0.00,VWS V14.00,2014-01-27 08:36:00,
2014-01-27 03:41:00,42.0,32.6,29.81,SSW,200,5.0,12.0,69,0.00,,---,0.00,VWS V14.00,2014-01-27 08:41:00,
2014-01-27 03:46:00,42.1,32.7,29.81,SSW,204,5.0,10.0,69,0.00,,---,0.00,VWS V14.00,2014-01-27 08:46:00,
2014-01-27 03:51:00,42.2,32.8,29.81,SW,219,4.0,12.0,69,0.00,,---,0.00,VWS V14.00,2014-01-27 08:51:00,
2014-01-27 03:56:00,42.3,32.9,29.81,WSW,248,2.0,10.0,69,0.00,,---,0.00,VWS V14.00,2014-01-27 08:56:00,
2014-01-27 04:01:00,42.4,33.0,29.81,SSW,201,3.0,12.0,69,0.00,,---,0.00,VWS V14.00,2014-01-27 09:01:00,
2014-01-27 04:06:00,42.3,32.9,29.80,SW,223,9.0,9.0,69,0.00,,---,0.00,VWS V14.00,2014-01-27 09:06:00,
2014-01-27 04:11:00,42.4,33.0,29.80,SW,229,4.0,12.0,69,0.00,,---,0.00,VWS V14.00,2014-01-27 09:11:00,
2014-01-27 04:16:00,42.5,33.1,29.81,NW,311,5.0,10.0,69,0.00,,---,0.00,VWS V14.00,2014-01-27 09:16:00,
2014-01-27 04:21:00,42.5,33.1,29.80,West,270,3.0,13.0,69,0.00,,---,0.00,VWS V14.00,2014-01-27 09:21:00,
2014-01-27 04:26:00,42.7,32.9,29.80,SW,216,3.0,14.0,68,0.00,,---,0.00,VWS V14.00,2014-01-27 09:26:00,
2014-01-27 04:31:00,42.7,32.9,29.79,SW,219,5.0,13.0,68,0.00,,---,0.00,VWS V14.00,2014-01-27 09:31:00,
2014-01-27 04:36:00,42.8,33.0,29.79,SSW,197,7.0,13.0,68,0.00,,---,0.00,VWS V14.00,2014-01-27 09:36:00,
2014-01-27 04:41:00,42.8,33.0,29.79,SSW,197,6.0,12.0,68,0.00,,---,0.00,VWS V14.00,2014-01-27 09:41:00,
2014-01-27 04:46:00,42.9,33.1,29.79,WSW,256,3.0,13.0,68,0.00,,---,0.00,VWS V14.00,2014-01-27 09:46:00,
2014-01-27 04:51:00,42.8,33.0,29.80,WSW,254,4.0,13.0,68,0.00,,---,0.00,VWS V14.00,2014-01-27 09:51:00,
2014-01-27 04:56:00,42.9,33.1,29.79,South,186,9.0,12.0,68,0.00,,---,0.00,VWS V14.00,2014-01-27 09:56:00,
2014-01-27 05:01:00,42.9,33.1,29.79,SSW,197,9.0,9.0,68,0.00,,---,0.00,VWS V14.00,2014-01-27 10:01:00,
2014-01-27 05:06:00,42.9,33.1,29.79,SW,228,4.0,12.0,68,0.00,,---,0.00,VWS V14.00,2014-01-27 10:06:00,
2014-01-27 05:11:00,43.0,33.2,29.79,West,262,2.0,13.0,68,0.00,,---,0.00,VWS V14.00,2014-01-27 10:11:00,
2014-01-27 05:16:00,43.1,33.3,29.80,SSW,210,7.0,13.0,68,0.00,,---,0.00,VWS V14.00,2014-01-27 10:16:00,
2014-01-27 05:21:00,43.1,33.3,29.79,SSW,204,5.0,10.0,68,0.00,,---,0.00,VWS V14.00,2014-01-27 10:21:00,
2014-01-27 05:26:00,43.1,33.3,29.79,SSW,205,6.0,12.0,68,0.00,,---,0.00,VWS V14.00,2014-01-27 10:26:00,
2014-01-27 05:31:00,43.2,33.4,29.79,South,190,2.0,9.0,68,0.00,,---,0.00,VWS V14.00,2014-01-27 10:31:00,
2014-01-27 05:36:00,43.1,33.3,29.79,SW,216,4.0,10.0,68,0.00,,---,0.00,VWS V14.00,2014-01-27 10:36:00,
2014-01-27 05:41:00,43.1,33.6,29.78,SW,214,4.0,10.0,69,0.00,,---,0.00,VWS V14.00,2014-01-27 10:41:00,
2014-01-27 05:46:00,43.2,33.7,29.78,South,188,7.0,13.0,69,0.00,,---,0.00,VWS V14.00,2014-01-27 10:46:00,
2014-01-27 05:51:00,43.2,33.7,29.79,South,182,6.0,11.0,69,0.00,,---,0.00,VWS V14.00,2014-01-27 10:51:00,
2014-01-27 05:56:00,43.3,33.8,29.78,SSW,202,10.0,14.0,69,0.00,,---,0.00,VWS V14.00,2014-01-27 10:56:00,
2014-01-27 06:01:00,43.4,33.6,29.78,SW,219,3.0,13.0,68,0.00,,---,0.00,VWS V14.00,2014-01-27 11:01:00,
2014-01-27 06:06:00,43.4,33.9,29.78,SSW,206,3.0,11.0,69,0.00,,---,0.00,VWS V14.00,2014-01-27 11:06:00,
2014-01-27 06:11:00,43.5,34.0,29.78,SSE,156,5.0,16.0,69,0.00,,---,0.00,VWS V14.00,2014-01-27 11:11:00,
2014-01-27 06:16:00,43.6,33.8,29.78,South,188,4.0,12.0,68,0.00,,---,0.00,VWS V14.00,2014-01-27 11:16:00,
2014-01-27 06:21:00,43.6,33.8,29.77,SW,235,7.0,14.0,68,0.00,,---,0.00,VWS V14.00,2014-01-27 11:21:00,
2014-01-27 06:26:00,43.6,33.8,29.78,SW,223,6.0,10.0,68,0.00,,---,0.00,VWS V14.00,2014-01-27 11:26:00,
2014-01-27 06:31:00,43.6,33.8,29.78,SW,222,6.0,13.0,68,0.00,,---,0.00,VWS V14.00,2014-01-27 11:31:00,
2014-01-27 06:36:00,43.7,33.8,29.78,SW,216,7.0,13.0,68,0.00,,---,0.00,VWS V14.00,2014-01-27 11:36:00,
2014-01-27 06:41:00,43.7,33.8,29.78,SSW,209,7.0,12.0,68,0.00,,---,0.00,VWS V14.00,2014-01-27 11:41:00,
2014-01-27 06:46:00,43.8,33.9,29.78,SSE,158,4.0,14.0,68,0.00,,---,0.00,VWS V14.00,2014-01-27 11:46:00,
2014-01-27 06:51:00,43.8,33.9,29.78,SSW,194,3.0,12.0,68,0.00,,---,0.00,VWS V14.00,2014-01-27 11:51:00,
2014-01-27 06:56:00,43.8,33.9,29.78,SSW,201,10.0,13.0,68,0.00,,---,0.00,VWS V14.00,2014-01-27 11:56:00,
2014-01-27 07:01:00,43.8,33.9,29.78,SSW,205,5.0,15.0,68,0.00,,---,0.00,VWS V14.00,2014-01-27 12:01:00,
2014-01-27 07:06:00,43.8,33.9,29.78,SW,222,7.0,11.0,68,0.00,,---,0.00,VWS V14.00,2014-01-27 12:06:00,
2014-01-27 07:11:00,43.9,34.0,29.78,SSW,210,10.0,14.0,68,0.00,,---,0.00,VWS V14.00,2014-01-27 12:11:00,
2014-01-27 07:16:00,44.0,34.1,29.78,SW,215,6.0,11.0,68,0.00,,---,0.00,VWS V14.00,2014-01-27 12:16:00,
2014-01-27 07:21:00,44.1,34.2,29.79,SW,231,4.0,13.0,68,0.00,,---,0.00,VWS V14.00,2014-01-27 12:21:00,
2014-01-27 07:26:00,44.2,34.3,29.78,SW,215,5.0,12.0,68,0.00,,---,0.00,VWS V14.00,2014-01-27 12:26:00,
2014-01-27 07:31:00,44.3,34.4,29.79,SSW,200,7.0,14.0,68,0.00,,---,0.00,VWS V14.00,2014-01-27 12:31:00,
2014-01-27 07:36:00,44.4,34.1,29.79,SSW,203,5.0,13.0,67,0.00,,---,0.00,VWS V14.00,2014-01-27 12:36:00,
2014-01-27 07:41:00,44.4,34.1,29.79,SSW,197,6.0,11.0,67,0.00,,---,0.00,VWS V14.00,2014-01-27 12:41:00,
2014-01-27 07:46:00,44.4,34.1,29.79,SSW,196,3.0,12.0,67,0.00,,---,0.00,VWS V14.00,2014-01-27 12:46:00,
2014-01-27 07:51:00,44.4,34.1,29.79,SSE,163,5.0,12.0,67,0.00,,---,0.00,VWS V14.00,2014-01-27 12:51:00,
2014-01-27 07:56:00,44.5,34.2,29.79,SW,216,5.0,7.0,67,0.00,,---,0.00,VWS V14.00,2014-01-27 12:56:00,
2014-01-27 08:01:00,44.7,34.8,29.79,SW,226,4.0,10.0,68,0.00,,---,0.00,VWS V14.00,2014-01-27 13:01:00,
2014-01-27 08:06:00,44.8,34.5,29.79,SW,223,3.0,12.0,67,0.00,,---,0.00,VWS V14.00,2014-01-27 13:06:00,
2014-01-27 08:11:00,45.0,34.7,29.79,South,186,4.0,11.0,67,0.00,,---,0.00,VWS V14.00,2014-01-27 13:11:00,
2014-01-27 08:16:00,45.2,34.9,29.79,WSW,254,3.0,9.0,67,0.00,,---,0.00,VWS V14.00,2014-01-27 13:16:00,
2014-01-27 08:21:00,45.5,35.2,29.79,South,180,5.0,14.0,67,0.00,,---,0.00,VWS V14.00,2014-01-27 13:21:00,
2014-01-27 08:26:00,45.8,35.1,29.79,WSW,240,9.0,11.0,66,0.00,,---,0.00,VWS V14.00,2014-01-27 13:26:00,
2014-01-27 08:31:00,46.1,35.4,29.79,SW,223,4.0,12.0,66,0.00,,---,0.00,VWS V14.00,2014-01-27 13:31:00,
2014-01-27 08:36:00,46.3,35.2,29.79,WSW,254,3.0,11.0,65,0.00,,---,0.00,VWS V14.00,2014-01-27 13:36:00,
2014-01-27 08:41:00,46.5,35.4,29.79,SW,221,2.0,2.0,65,0.00,,---,0.00,VWS V14.00,2014-01-27 13:41:00,
2014-01-27 08:46:00,46.6,35.5,29.79,SW,221,4.0,5.0,65,0.00,,---,0.00,VWS V14.00,2014-01-27 13:46:00,
2014-01-27 08:51:00,46.7,35.2,29.79,SSW,192,2.0,3.0,64,0.00,,---,0.00,VWS V14.00,2014-01-27 13:51:00,
2014-01-27 08:56:00,46.8,35.3,29.79,SW,234,9.0,9.0,64,0.00,,---,0.00,VWS V14.00,2014-01-27 13:56:00,
2014-01-27 09:01:00,46.9,35.4,29.78,SW,232,1.0,2.0,64,0.00,,---,0.00,VWS V14.00,2014-01-27 14:01:00,
2014-01-27 09:07:00,47.1,35.6,29.79,SW,227,3.0,3.0,64,0.00,,---,0.00,VWS V14.00,2014-01-27 14:07:00,
2014-01-27 09:12:00,47.3,35.4,29.79,WSW,246,3.0,4.0,63,0.00,,---,0.00,VWS V14.00,2014-01-27 14:12:00,
2014-01-27 09:17:00,47.5,35.5,29.79,WSW,253,3.0,6.0,63,0.00,,---,0.00,VWS V14.00,2014-01-27 14:17:00,
2014-01-27 09:22:00,47.8,35.8,29.79,WSW,256,6.0,6.0,63,0.00,,---,0.00,VWS V14.00,2014-01-27 14:22:00,
2014-01-27 09:27:00,48.1,36.1,29.78,WSW,243,9.0,10.0,63,0.00,,---,0.00,VWS V14.00,2014-01-27 14:27:00,
2014-01-27 09:32:00,48.4,35.6,29.78,SW,227,9.0,9.0,61,0.00,,---,0.00,VWS V14.00,2014-01-27 14:32:00,
2014-01-27 09:37:00,48.7,35.9,29.79,SSW,207,5.0,6.0,61,0.00,,---,0.00,VWS V14.00,2014-01-27 14:37:00,
2014-01-27 09:42:00,49.0,36.2,29.79,WSW,242,5.0,5.0,61,0.00,,---,0.00,VWS V14.00,2014-01-27 14:42:00,
2014-01-27 09:47:00,49.2,35.9,29.79,WSW,248,7.0,8.0,60,0.00,,---,0.00,VWS V14.00,2014-01-27 14:47:00,
2014-01-27 09:52:00,49.4,36.1,29.79,SSW,210,4.0,6.0,60,0.00,,---,0.00,VWS V14.00,2014-01-27 14:52:00,
2014-01-27 09:57:00,49.6,36.3,29.79,NW,315,4.0,5.0,60,0.00,,---,0.00,VWS V14.00,2014-01-27 14:57:00,
2014-01-27 10:02:00,49.7,36.4,29.79,SW,219,4.0,4.0,60,0.00,,---,0.00,VWS V14.00,2014-01-27 15:02:00,
2014-01-27 10:07:00,49.9,36.2,29.79,WSW,244,3.0,4.0,59,0.00,,---,0.00,VWS V14.00,2014-01-27 15:07:00,
2014-01-27 10:12:00,50.0,36.2,29.78,SSW,200,5.0,7.0,59,0.00,,---,0.00,VWS V14.00,2014-01-27 15:12:00,
2014-01-27 10:17:00,50.2,36.4,29.78,WSW,240,2.0,3.0,59,0.00,,---,0.00,VWS V14.00,2014-01-27 15:17:00,
2014-01-27 10:22:00,50.5,36.3,29.78,WSW,242,11.0,11.0,58,0.00,,---,0.00,VWS V14.00,2014-01-27 15:22:00,
2014-01-27 10:27:00,50.7,36.5,29.78,South,178,4.0,5.0,58,0.00,,---,0.00,VWS V14.00,2014-01-27 15:27:00,
2014-01-27 10:32:00,50.9,36.7,29.78,SSW,193,1.0,3.0,58,0.00,,---,0.00,VWS V14.00,2014-01-27 15:32:00,
2014-01-27 10:37:00,51.0,37.2,29.78,SW,235,4.0,6.0,59,0.00,,---,0.00,VWS V14.00,2014-01-27 15:37:00,
2014-01-27 10:42:00,51.1,36.8,29.78,SSW,209,4.0,4.0,58,0.00,,---,0.00,VWS V14.00,2014-01-27 15:42:00,
2014-01-27 10:47:00,51.4,37.1,29.78,South,184,4.0,6.0,58,0.00,,---,0.00,VWS V14.00,2014-01-27 15:47:00,
2014-01-27 10:52:00,51.9,37.2,29.79,WNW,291,2.0,6.0,57,0.00,,---,0.00,VWS V14.00,2014-01-27 15:52:00,
2014-01-27 10:57:00,52.9,38.1,29.79,WSW,253,1.0,2.0,57,0.00,,---,0.00,VWS V14.00,2014-01-27 15:57:00,
2014-01-27 11:02:00,54.2,37.5,29.79,SW,224,11.0,12.0,53,0.00,,---,0.00,VWS V14.00,2014-01-27 16:02:00,
2014-01-27 11:07:00,55.2,37.9,29.79,West,270,3.0,5.0,52,0.00,,---,0.00,VWS V14.00,2014-01-27 16:07:00,
2014-01-27 11:12:00,55.7,37.4,29.79,SSW,205,11.0,11.0,50,0.00,,---,0.00,VWS V14.00,2014-01-27 16:12:00,
2014-01-27 11:17:00,55.6,37.3,29.78,WNW,302,5.0,7.0,50,0.00,,---,0.00,VWS V14.00,2014-01-27 16:17:00,
2014-01-27 11:22:00,55.2,36.9,29.78,South,179,9.0,9.0,50,0.00,,---,0.00,VWS V14.00,2014-01-27 16:22:00,
2014-01-27 11:27:00,55.2,36.9,29.78,SW,221,7.0,8.0,50,0.00,,---,0.00,VWS V14.00,2014-01-27 16:27:00,
2014-01-27 11:32:00,55.7,37.9,29.78,South,180,2.0,3.0,51,0.00,,---,0.00,VWS V14.00,2014-01-27 16:32:00,
2014-01-27 11:37:00,56.2,37.3,29.78,SW,232,3.0,4.0,49,0.00,,---,0.00,VWS V14.00,2014-01-27 16:37:00,
2014-01-27 11:42:00,56.6,37.2,29.78,SW,227,5.0,13.0,48,0.00,,---,0.00,VWS V14.00,2014-01-27 16:42:00,
2014-01-27 11:47:00,57.2,37.7,29.77,WSW,248,4.0,5.0,48,0.00,,---,0.00,VWS V14.00,2014-01-27 16:47:00,
2014-01-27 11:52:00,57.8,37.7,29.77,ESE,105,12.0,14.0,47,0.00,,---,0.00,VWS V14.00,2014-01-27 16:52:00,
2014-01-27 11:57:00,57.9,37.3,29.77,West,274,4.0,10.0,46,0.00,,---,0.00,VWS V14.00,2014-01-27 16:57:00,
2014-01-27 12:02:00,58.0,37.9,29.77,West,260,7.0,10.0,47,0.00,,---,0.00,VWS V14.00,2014-01-27 17:02:00,
2014-01-27 12:07:00,58.4,37.7,29.76,SW,228,8.0,11.0,46,0.00,,---,0.00,VWS V14.00,2014-01-27 17:07:00,
2014-01-27 12:12:00,58.9,38.2,29.76,WSW,237,2.0,4.0,46,0.00,,---,0.00,VWS V14.00,2014-01-27 17:12:00,
2014-01-27 12:17:00,59.5,38.7,29.76,South,175,12.0,14.0,46,0.00,,---,0.00,VWS V14.00,2014-01-27 17:17:00,
2014-01-27 12:22:00,59.3,38.5,29.75,South,170,3.0,5.0,46,0.00,,---,0.00,VWS V14.00,2014-01-27 17:22:00,
2014-01-27 12:27:00,59.3,38.0,29.75,South,171,3.0,6.0,45,0.00,,---,0.00,VWS V14.00,2014-01-27 17:27:00,
2014-01-27 12:32:00,58.9,38.2,29.75,SSW,198,8.0,8.0,46,0.00,,---,0.00,VWS V14.00,2014-01-27 17:32:00,
2014-01-27 12:37:00,59.1,38.4,29.74,SSW,202,9.0,11.0,46,0.00,,---,0.00,VWS V14.00,2014-01-27 17:37:00,
2014-01-27 12:42:00,59.2,38.5,29.74,SW,229,5.0,10.0,46,0.00,,---,0.00,VWS V14.00,2014-01-27 17:42:00,
2014-01-27 12:47:00,59.1,38.4,29.74,South,180,7.0,10.0,46,0.00,,---,0.00,VWS V14.00,2014-01-27 17:47:00,
2014-01-27 12:52:00,59.4,39.2,29.74,SSW,200,8.0,9.0,47,0.00,,---,0.00,VWS V14.00,2014-01-27 17:52:00,
2014-01-27 12:57:00,59.8,37.9,29.74,SSW,203,7.0,8.0,44,0.00,,---,0.00,VWS V14.00,2014-01-27 17:57:00,
2014-01-27 13:02:00,59.8,38.4,29.74,SSW,196,6.0,7.0,45,0.00,,---,0.00,VWS V14.00,2014-01-27 18:02:00,
2014-01-27 13:07:00,60.2,38.8,29.74,WSW,239,3.0,6.0,45,0.00,,---,0.00,VWS V14.00,2014-01-27 18:07:00,
2014-01-27 13:12:00,60.4,38.4,29.74,WSW,242,7.0,10.0,44,0.00,,---,0.00,VWS V14.00,2014-01-27 18:12:00,
2014-01-27 13:17:00,60.4,39.0,29.73,SSW,200,6.0,11.0,45,0.00,,---,0.00,VWS V14.00,2014-01-27 18:17:00,
2014-01-27 13:22:00,60.6,38.6,29.73,WSW,248,6.0,11.0,44,0.00,,---,0.00,VWS V14.00,2014-01-27 18:22:00,
2014-01-27 13:27:00,60.7,38.7,29.73,West,260,3.0,8.0,44,0.00,,---,0.00,VWS V14.00,2014-01-27 18:27:00,
2014-01-27 13:32:00,60.7,38.1,29.74,SW,227,6.0,9.0,43,0.00,,---,0.00,VWS V14.00,2014-01-27 18:32:00,
2014-01-27 13:37:00,60.9,38.9,29.73,SSW,202,11.0,11.0,44,0.00,,---,0.00,VWS V14.00,2014-01-27 18:37:00,
2014-01-27 13:42:00,61.2,39.1,29.74,South,191,5.0,10.0,44,0.00,,---,0.00,VWS V14.00,2014-01-27 18:42:00,
2014-01-27 13:47:00,61.6,39.5,29.74,NW,306,3.0,3.0,44,0.00,,---,0.00,VWS V14.00,2014-01-27 18:47:00,
2014-01-27 13:52:00,61.7,39.0,29.74,SW,223,3.0,5.0,43,0.00,,---,0.00,VWS V14.00,2014-01-27 18:52:00,
2014-01-27 13:57:00,61.8,39.1,29.74,NW,304,11.0,13.0,43,0.00,,---,0.00,VWS V14.00,2014-01-27 18:57:00,
2014-01-27 14:02:00,61.6,38.9,29.74,SW,231,4.0,6.0,43,0.00,,---,0.00,VWS V14.00,2014-01-27 19:02:00,
2014-01-27 14:07:00,61.7,39.0,29.73,South,186,6.0,6.0,43,0.00,,---,0.00,VWS V14.00,2014-01-27 19:07:00,
2014-01-27 14:12:00,61.7,39.0,29.73,SW,222,5.0,7.0,43,0.00,,---,0.00,VWS V14.00,2014-01-27 19:12:00,
2014-01-27 14:17:00,61.6,38.9,29.73,SW,229,4.0,6.0,43,0.00,,---,0.00,VWS V14.00,2014-01-27 19:17:00,
2014-01-27 14:22:00,61.8,39.1,29.73,WSW,247,5.0,5.0,43,0.00,,---,0.00,VWS V14.00,2014-01-27 19:22:00,
2014-01-27 14:27:00,62.0,38.7,29.73,WNW,286,6.0,10.0,42,0.00,,---,0.00,VWS V14.00,2014-01-27 19:27:00,
2014-01-27 14:32:00,62.1,38.8,29.73,West,272,6.0,7.0,42,0.00,,---,0.00,VWS V14.00,2014-01-27 19:32:00,
2014-01-27 14:37:00,62.1,38.8,29.73,West,273,10.0,10.0,42,0.00,,---,0.00,VWS V14.00,2014-01-27 19:37:00,
2014-01-27 14:42:00,62.1,38.8,29.73,WSW,240,6.0,9.0,42,0.00,,---,0.00,VWS V14.00,2014-01-27 19:42:00,
2014-01-27 14:47:00,61.8,39.1,29.73,SSW,210,3.0,8.0,43,0.00,,---,0.00,VWS V14.00,2014-01-27 19:47:00,
2014-01-27 14:52:00,61.7,39.0,29.73,WNW,284,1.0,10.0,43,0.00,,---,0.00,VWS V14.00,2014-01-27 19:52:00,
2014-01-27 14:57:00,61.7,39.6,29.73,SSW,196,1.0,3.0,44,0.00,,---,0.00,VWS V14.00,2014-01-27 19:57:00,
2014-01-27 15:02:00,61.6,39.5,29.74,SW,232,4.0,4.0,44,0.00,,---,0.00,VWS V14.00,2014-01-27 20:02:00,
2014-01-27 15:07:00,61.6,39.5,29.74,SW,226,5.0,5.0,44,0.00,,---,0.00,VWS V14.00,2014-01-27 20:07:00,
2014-01-27 15:11:00,61.7,39.6,29.74,SSW,205,9.0,9.0,44,0.00,,---,0.00,VWS V14.00,2014-01-27 20:11:00,
2014-01-27 15:16:00,61.9,39.8,29.74,SSW,206,5.0,10.0,44,0.00,,---,0.00,VWS V14.00,2014-01-27 20:16:00,
2014-01-27 15:21:00,62.2,39.5,29.74,SW,227,6.0,6.0,43,0.00,,---,0.00,VWS V14.00,2014-01-27 20:21:00,
2014-01-27 15:26:00,62.5,39.7,29.74,South,172,4.0,12.0,43,0.00,,---,0.00,VWS V14.00,2014-01-27 20:26:00,
2014-01-27 15:31:00,62.4,39.0,29.74,WSW,249,8.0,11.0,42,0.00,,---,0.00,VWS V14.00,2014-01-27 20:31:00,
2014-01-27 15:36:00,62.3,39.5,29.75,West,279,6.0,10.0,43,0.00,,---,0.00,VWS V14.00,2014-01-27 20:36:00,
2014-01-27 15:41:00,62.0,39.3,29.75,SW,222,3.0,12.0,43,0.00,,---,0.00,VWS V14.00,2014-01-27 20:41:00,
2014-01-27 15:46:00,61.8,39.7,29.75,SW,223,2.0,11.0,44,0.00,,---,0.00,VWS V14.00,2014-01-27 20:46:00,
2014-01-27 15:51:00,61.7,39.6,29.75,SW,232,3.0,9.0,44,0.00,,---,0.00,VWS V14.00,2014-01-27 20:51:00,
2014-01-27 15:56:00,61.8,39.1,29.75,South,182,4.0,12.0,43,0.00,,---,0.00,VWS V14.00,2014-01-27 20:56:00,
2014-01-27 16:01:00,61.7,39.6,29.76,WSW,243,8.0,9.0,44,0.00,,---,0.00,VWS V14.00,2014-01-27 21:01:00,
2014-01-27 16:06:00,61.6,39.5,29.76,WNW,293,5.0,12.0,44,0.00,,---,0.00,VWS V14.00,2014-01-27 21:06:00,
2014-01-27 16:11:00,61.6,39.5,29.76,West,279,6.0,10.0,44,0.00,,---,0.00,VWS V14.00,2014-01-27 21:11:00,
2014-01-27 16:16:00,61.5,39.4,29.76,WNW,286,9.0,11.0,44,0.00,,---,0.00,VWS V14.00,2014-01-27 21:16:00,
2014-01-27 16:21:00,61.3,39.2,29.76,West,275,5.0,10.0,44,0.00,,---,0.00,VWS V14.00,2014-01-27 21:21:00,
2014-01-27 16:26:00,61.1,39.0,29.76,West,265,5.0,7.0,44,0.00,,---,0.00,VWS V14.00,2014-01-27 21:26:00,
2014-01-27 16:31:00,61.1,39.6,29.76,WNW,286,5.0,6.0,45,0.00,,---,0.00,VWS V14.00,2014-01-27 21:31:00,
2014-01-27 16:36:00,61.0,39.5,29.76,West,276,1.0,7.0,45,0.00,,---,0.00,VWS V14.00,2014-01-27 21:36:00,
2014-01-27 16:41:00,60.9,39.4,29.77,WSW,239,2.0,9.0,45,0.00,,---,0.00,VWS V14.00,2014-01-27 21:41:00,
2014-01-27 16:46:00,60.8,39.3,29.76,WNW,284,3.0,7.0,45,0.00,,---,0.00,VWS V14.00,2014-01-27 21:46:00,
2014-01-27 16:51:00,60.7,39.3,29.77,WSW,240,1.0,7.0,45,0.00,,---,0.00,VWS V14.00,2014-01-27 21:51:00,
2014-01-27 16:56:00,60.7,39.3,29.77,West,264,2.0,6.0,45,0.00,,---,0.00,VWS V14.00,2014-01-27 21:56:00,
2014-01-27 17:01:00,60.6,39.7,29.77,West,270,1.0,3.0,46,0.00,,---,0.00,VWS V14.00,2014-01-27 22:01:00,
2014-01-27 17:06:00,60.5,39.6,29.77,West,269,3.0,5.0,46,0.00,,---,0.00,VWS V14.00,2014-01-27 22:06:00,
2014-01-27 17:11:00,60.4,39.5,29.77,WSW,245,1.0,6.0,46,0.00,,---,0.00,VWS V14.00,2014-01-27 22:11:00,
2014-01-27 17:16:00,60.3,39.5,29.77,WNW,288,3.0,5.0,46,0.00,,---,0.00,VWS V14.00,2014-01-27 22:16:00,
2014-01-27 17:21:00,60.3,39.5,29.78,NNW,330,1.0,5.0,46,0.00,,---,0.00,VWS V14.00,2014-01-27 22:21:00,
2014-01-27 17:26:00,58.9,36.5,29.80,NW,313,4.0,18.0,43,0.00,,---,0.00,VWS V14.00,2014-01-27 22:26:00,
2014-01-27 17:31:00,54.0,34.2,29.81,NW,321,7.0,18.0,47,0.00,,---,0.00,VWS V14.00,2014-01-27 22:31:00,
2014-01-27 17:36:00,49.7,33.3,29.82,NW,317,6.0,17.0,53,0.00,,---,0.00,VWS V14.00,2014-01-27 22:36:00,
2014-01-27 17:41:00,46.9,32.9,29.83,North,355,4.0,13.0,58,0.00,,---,0.00,VWS V14.00,2014-01-27 22:41:00,
2014-01-27 17:46:00,45.3,32.2,29.83,WNW,290,2.0,13.0,60,0.00,,---,0.00,VWS V14.00,2014-01-27 22:46:00,
2014-01-27 17:51:00,44.1,31.5,29.84,South,188,4.0,15.0,61,0.00,,---,0.00,VWS V14.00,2014-01-27 22:51:00,
2014-01-27 17:56:00,43.3,30.8,29.85,ENE,57,2.0,17.0,61,0.00,,---,0.00,VWS V14.00,2014-01-27 22:56:00,
2014-01-27 18:01:00,42.7,30.6,29.85,NW,313,4.0,14.0,62,0.00,,---,0.00,VWS V14.00,2014-01-27 23:01:00,
2014-01-27 18:06:00,42.2,30.1,29.85,NW,306,13.0,16.0,62,0.00,,---,0.00,VWS V14.00,2014-01-27 23:06:00,
2014-01-27 18:11:00,41.8,29.8,29.86,West,261,8.0,16.0,62,0.00,,---,0.00,VWS V14.00,2014-01-27 23:11:00,
2014-01-27 18:16:00,41.5,29.5,29.87,WNW,287,10.0,17.0,62,0.00,,---,0.00,VWS V14.00,2014-01-27 23:16:00,
2014-01-27 18:21:00,41.1,29.5,29.88,West,265,2.0,15.0,63,0.00,,---,0.00,VWS V14.00,2014-01-27 23:21:00,
2014-01-27 18:26:00,40.8,29.6,29.88,NW,309,7.0,18.0,64,0.00,,---,0.00,VWS V14.00,2014-01-27 23:26:00,
2014-01-27 18:31:00,40.6,29.4,29.88,South,184,4.0,11.0,64,0.00,,---,0.00,VWS V14.00,2014-01-27 23:31:00,
2014-01-27 18:36:00,40.4,28.8,29.88,West,259,3.0,10.0,63,0.00,,---,0.00,VWS V14.00,2014-01-27 23:36:00,
2014-01-27 18:41:00,40.1,28.1,29.89,WSW,240,5.0,17.0,62,0.00,,---,0.00,VWS V14.00,2014-01-27 23:41:00,
2014-01-27 18:46:00,39.8,27.5,29.89,SW,216,2.0,18.0,61,0.00,,---,0.00,VWS V14.00,2014-01-27 23:46:00,
2014-01-27 18:51:00,39.7,27.4,29.89,South,189,6.0,12.0,61,0.00,,---,0.00,VWS V14.00,2014-01-27 23:51:00,
2014-01-27 18:56:00,39.4,27.1,29.90,NNE,17,9.0,16.0,61,0.00,,---,0.00,VWS V14.00,2014-01-27 23:56:00,
2014-01-27 19:01:00,39.2,26.9,29.90,NW,304,10.0,21.0,61,0.00,,---,0.00,VWS V14.00,2014-01-28 00:01:00,
2014-01-27 19:06:00,39.0,26.7,29.90,NNW,327,5.0,17.0,61,0.00,,---,0.00,VWS V14.00,2014-01-28 00:06:00,
2014-01-27 19:11:00,38.9,26.6,29.90,NW,310,5.0,16.0,61,0.00,,---,0.00,VWS V14.00,2014-01-28 00:11:00,
2014-01-27 19:16:00,38.8,26.9,29.91,NE,50,1.0,10.0,62,0.00,,---,0.00,VWS V14.00,2014-01-28 00:16:00,
2014-01-27 19:21:00,38.6,25.9,29.91,NW,317,12.0,15.0,60,0.00,,---,0.00,VWS V14.00,2014-01-28 00:21:00,
2014-01-27 19:26:00,38.3,25.2,29.91,West,272,5.0,15.0,59,0.00,,---,0.00,VWS V14.00,2014-01-28 00:26:00,
2014-01-27 19:31:00,38.1,24.6,29.92,NW,325,14.0,14.0,58,0.00,,---,0.00,VWS V14.00,2014-01-28 00:31:00,
2014-01-27 19:36:00,38.0,24.5,29.92,NW,304,7.0,17.0,58,0.00,,---,0.00,VWS V14.00,2014-01-28 00:36:00,
2014-01-27 19:41:00,37.9,24.5,29.93,WNW,298,7.0,19.0,58,0.00,,---,0.00,VWS V14.00,2014-01-28 00:41:00,
2014-01-27 19:46:00,37.8,25.6,29.93,WNW,295,6.0,16.0,61,0.00,,---,0.00,VWS V14.00,2014-01-28 00:46:00,
2014-01-27 19:51:00,37.7,23.9,29.94,ESE,103,4.0,11.0,57,0.00,,---,0.00,VWS V14.00,2014-01-28 00:51:00,
2014-01-27 19:56:00,37.6,23.3,29.94,NW,307,6.0,19.0,56,0.00,,---,0.00,VWS V14.00,2014-01-28 00:56:00,
2014-01-27 20:01:00,37.4,22.7,29.94,NW,325,6.0,13.0,55,0.00,,---,0.00,VWS V14.00,2014-01-28 01:01:00,
2014-01-27 20:06:00,37.3,22.6,29.94,NW,308,8.0,14.0,55,0.00,,---,0.00,VWS V14.00,2014-01-28 01:06:00,
2014-01-27 20:11:00,37.1,22.0,29.95,NW,319,7.0,20.0,54,0.00,,---,0.00,VWS V14.00,2014-01-28 01:11:00,
2014-01-27 20:16:00,36.9,22.3,29.95,SSW,193,4.0,19.0,55,0.00,,---,0.00,VWS V14.00,2014-01-28 01:16:00,
2014-01-27 20:21:00,36.7,21.6,29.95,NNW,341,4.0,19.0,54,0.00,,---,0.00,VWS V14.00,2014-01-28 01:21:00,
2014-01-27 20:26:00,36.4,21.4,29.95,NE,48,7.0,16.0,54,0.00,,---,0.00,VWS V14.00,2014-01-28 01:26:00,
2014-01-27 20:31:00,36.2,21.6,29.96,NW,323,0.0,16.0,55,0.00,,---,0.00,VWS V14.00,2014-01-28 01:31:00,
2014-01-27 20:36:00,36.0,22.7,29.97,SSW,207,4.0,18.0,58,0.00,,---,0.00,VWS V14.00,2014-01-28 01:36:00,
2014-01-27 20:41:00,35.7,22.4,29.97,SSE,150,4.0,14.0,58,0.00,,---,0.00,VWS V14.00,2014-01-28 01:41:00,
2014-01-27 20:46:00,35.4,22.1,29.97,NW,317,4.0,13.0,58,0.00,,---,0.00,VWS V14.00,2014-01-28 01:46:00,
2014-01-27 20:51:00,35.2,21.9,29.98,WNW,286,5.0,21.0,58,0.00,,---,0.00,VWS V14.00,2014-01-28 01:51:00,
2014-01-27 20:56:00,35.0,22.1,29.98,SW,214,4.0,17.0,59,0.00,,---,0.00,VWS V14.00,2014-01-28 01:56:00,
2014-01-27 21:01:00,34.9,22.0,29.98,NW,323,11.0,13.0,59,0.00,,---,0.00,VWS V14.00,2014-01-28 02:01:00,
2014-01-27 21:06:00,34.8,22.0,29.99,NW,304,7.0,16.0,59,0.00,,---,0.00,VWS V14.00,2014-01-28 02:06:00,
2014-01-27 21:11:00,34.8,22.0,29.99,WNW,298,6.0,11.0,59,0.00,,---,0.00,VWS V14.00,2014-01-28 02:11:00,
2014-01-27 21:16:00,34.7,21.0,30.00,WNW,295,8.0,13.0,57,0.00,,---,0.00,VWS V14.00,2014-01-28 02:16:00,
2014-01-27 21:21:00,34.6,21.4,30.00,West,261,5.0,13.0,58,0.00,,---,0.00,VWS V14.00,2014-01-28 02:21:00,
2014-01-27 21:26:00,34.4,21.6,30.00,West,269,2.0,14.0,59,0.00,,---,0.00,VWS V14.00,2014-01-28 02:26:00,
2014-01-27 21:31:00,34.2,21.4,30.00,SW,223,2.0,15.0,59,0.00,,---,0.00,VWS V14.00,2014-01-28 02:31:00,
2014-01-27 21:36:00,34.0,21.2,30.01,WNW,298,3.0,9.0,59,0.00,,---,0.00,VWS V14.00,2014-01-28 02:36:00,
2014-01-27 21:41:00,33.8,21.0,30.02,WNW,294,7.0,13.0,59,0.00,,---,0.00,VWS V14.00,2014-01-28 02:41:00,
2014-01-27 21:46:00,33.7,20.9,30.02,WNW,283,12.0,19.0,59,0.00,,---,0.00,VWS V14.00,2014-01-28 02:46:00,
2014-01-27 21:51:00,33.5,20.7,30.03,NW,307,11.0,14.0,59,0.00,,---,0.00,VWS V14.00,2014-01-28 02:51:00,
2014-01-27 21:56:00,33.4,20.2,30.03,NW,315,14.0,17.0,58,0.00,,---,0.00,VWS V14.00,2014-01-28 02:56:00,
2014-01-27 22:01:00,33.3,20.5,30.04,ENE,58,10.0,15.0,59,0.00,,---,0.00,VWS V14.00,2014-01-28 03:01:00,
2014-01-27 22:06:00,33.1,20.4,30.04,East,89,3.0,10.0,59,0.00,,---,0.00,VWS V14.00,2014-01-28 03:06:00,
2014-01-27 22:11:00,33.0,20.2,30.04,WNW,302,8.0,13.0,59,0.00,,---,0.00,VWS V14.00,2014-01-28 03:11:00,
2014-01-27 22:16:00,33.0,20.6,30.05,ENE,67,2.0,10.0,60,0.00,,---,0.00,VWS V14.00,2014-01-28 03:16:00,
2014-01-27 22:21:00,32.9,20.9,30.05,SSE,161,4.0,10.0,61,0.00,,---,0.00,VWS V14.00,2014-01-28 03:21:00,
2014-01-27 22:26:00,32.9,20.9,30.05,NW,322,1.0,13.0,61,0.00,,---,0.00,VWS V14.00,2014-01-28 03:26:00,
2014-01-27 22:31:00,32.9,20.5,30.06,WNW,292,6.0,17.0,60,0.00,,---,0.00,VWS V14.00,2014-01-28 03:31:00,
2014-01-27 22:36:00,32.9,18.9,30.06,West,266,4.0,13.0,56,0.00,,---,0.00,VWS V14.00,2014-01-28 03:36:00,
2014-01-27 22:41:00,32.8,17.6,30.06,WNW,298,7.0,14.0,53,0.00,,---,0.00,VWS V14.00,2014-01-28 03:41:00,
2014-01-27 22:46:00,32.8,17.6,30.07,North,360,2.0,11.0,53,0.00,,---,0.00,VWS V14.00,2014-01-28 03:46:00,
2014-01-27 22:51:00,32.8,18.8,30.07,ENE,63,3.0,11.0,56,0.00,,---,0.00,VWS V14.00,2014-01-28 03:51:00,
2014-01-27 22:56:00,32.7,20.4,30.07,SW,229,4.0,7.0,60,0.00,,---,0.00,VWS V14.00,2014-01-28 03:56:00,
2014-01-27 23:01:00,32.6,21.0,30.07,ESE,111,2.0,14.0,62,0.00,,---,0.00,VWS V14.00,2014-01-28 04:01:00,
2014-01-27 23:06:00,32.4,20.9,30.08,West,281,6.0,8.0,62,0.00,,---,0.00,VWS V14.00,2014-01-28 04:06:00,
2014-01-27 23:11:00,32.4,20.9,30.08,NNW,342,3.0,10.0,62,0.00,,---,0.00,VWS V14.00,2014-01-28 04:11:00,
2014-01-27 23:16:00,32.3,20.4,30.08,NW,310,1.0,12.0,61,0.00,,---,0.00,VWS V14.00,2014-01-28 04:16:00,
2014-01-27 23:21:00,32.2,20.7,30.09,SSW,213,5.0,9.0,62,0.00,,---,0.00,VWS V14.00,2014-01-28 04:21:00,
2014-01-27 23:26:00,32.1,20.2,30.09,West,280,1.0,6.0,61,0.00,,---,0.00,VWS V14.00,2014-01-28 04:26:00,
2014-01-27 23:31:00,32.0,20.1,30.09,WNW,303,5.0,10.0,61,0.00,,---,0.00,VWS V14.00,2014-01-28 04:31:00,
2014-01-27 23:36:00,32.0,19.7,30.09,NW,315,9.0,10.0,60,0.00,,---,0.00,VWS V14.00,2014-01-28 04:36:00,
2014-01-27 23:41:00,32.0,19.7,30.09,West,261,4.0,9.0,60,0.00,,---,0.00,VWS V14.00,2014-01-28 04:41:00,
2014-01-27 23:46:00,31.9,20.0,30.09,WNW,298,4.0,7.0,61,0.00,,---,0.00,VWS V14.00,2014-01-28 04:46:00,
2014-01-27 23:51:00,31.9,20.0,30.09,NNW,338,2.0,11.0,61,0.00,,---,0.00,VWS V14.00,2014-01-28 04:51:00,
2014-01-27 23:56:00,31.9,20.0,30.09,WNW,298,3.0,10.0,61,0.00,,---,0.00,VWS V14.00,2014-01-28 04:56:00,